RYS783D LTAI-EPWR

Flight info

Callsign RYS783D
Flight time 2h 46m
Altitude 38000
Route EKNUD1K/18L EKNUD UQ26 BKZ DCT IBLAX DCT IPTOL DCT KARIL DCT ROMKA DCT RAZEC DCT LENOV L619 LUMVE
Aircraft B38M/M-SADE3FGILRWY/SB1

Departure

Time 2026-05-06 14:19
Airport Antalya International Airport (LTAI)

Arrival

Time 2026-05-06 17:05
Airport Copernicus Wrocław Airport (EPWR)
Time Latitude Longitude Altitude Speed Heading
2026-05-06 13:40 36.89358 30.79701 195 ft 0 kts
2026-05-06 14:06 36.89348 30.79700 195 ft 4 kts
2026-05-06 14:06 36.89321 30.79697 206 ft 4 kts
2026-05-06 14:07 36.89295 30.79690 202 ft 4 kts 18°
2026-05-06 14:07 36.89271 30.79677 203 ft 3 kts 25°
2026-05-06 14:07 36.89264 30.79673 195 ft 0 kts 25°
2026-05-06 14:12 36.89268 30.79676 195 ft 2 kts 26°
2026-05-06 14:12 36.89280 30.79718 199 ft 10 kts 95°
2026-05-06 14:13 36.89269 30.79836 195 ft 17 kts 96°
2026-05-06 14:13 36.89254 30.80000 202 ft 20 kts 96°
2026-05-06 14:13 36.89239 30.80178 195 ft 21 kts 96°
2026-05-06 14:13 36.89222 30.80369 195 ft 23 kts 96°
2026-05-06 14:14 36.89205 30.80560 194 ft 17 kts 96°
2026-05-06 14:14 36.89249 30.80648 197 ft 13 kts 11°
2026-05-06 14:14 36.89348 30.80662 199 ft 15 kts
2026-05-06 14:14 36.89461 30.80678 198 ft 17 kts
2026-05-06 14:15 36.89588 30.80695 205 ft 19 kts
2026-05-06 14:15 36.89727 30.80714 202 ft 21 kts
2026-05-06 14:15 36.89878 30.80734 196 ft 23 kts
2026-05-06 14:15 36.90041 30.80756 200 ft 24 kts
2026-05-06 14:16 36.90216 30.80780 198 ft 26 kts
2026-05-06 14:16 36.90400 30.80805 200 ft 26 kts
2026-05-06 14:16 36.90580 30.80830 195 ft 26 kts
2026-05-06 14:16 36.90757 30.80855 193 ft 23 kts
2026-05-06 14:17 36.90900 30.80874 193 ft 21 kts
2026-05-06 14:17 36.91038 30.80893 193 ft 19 kts
2026-05-06 14:17 36.91134 30.80940 205 ft 13 kts 67°
2026-05-06 14:17 36.91132 30.81039 207 ft 12 kts 97°
2026-05-06 14:18 36.91110 30.81134 203 ft 11 kts 146°
2026-05-06 14:18 36.91033 30.81130 195 ft 14 kts 187°
2026-05-06 14:18 36.90733 30.81088 200 ft 81 kts 187°
2026-05-06 14:18 36.89939 30.80978 195 ft 146 kts 186°
2026-05-06 14:19 36.88812 30.80820 576 ft 171 kts 180°
2026-05-06 14:19 36.87623 30.80719 1515 ft 171 kts 179°
2026-05-06 14:19 36.86432 30.80885 2474 ft 183 kts 169°
2026-05-06 14:19 36.85094 30.81183 3006 ft 210 kts 169°
2026-05-06 14:20 36.83590 30.81507 3720 ft 220 kts 169°
2026-05-06 14:20 36.82082 30.81824 4667 ft 224 kts 169°
2026-05-06 14:20 36.80511 30.82149 5401 ft 236 kts 169°
2026-05-06 14:20 36.78900 30.82829 5989 ft 254 kts 153°
2026-05-06 14:21 36.77253 30.83837 6554 ft 274 kts 153°
2026-05-06 14:21 36.75526 30.84998 7128 ft 290 kts 141°
2026-05-06 14:21 36.74274 30.86914 8096 ft 285 kts 114°
2026-05-06 14:21 36.73738 30.89299 8917 ft 289 kts 94°
2026-05-06 14:22 36.73499 30.91808 9832 ft 294 kts 95°
2026-05-06 14:22 36.73266 30.94369 10491 ft 305 kts 94°
2026-05-06 14:22 36.73030 30.97088 10953 ft 323 kts 94°
2026-05-06 14:22 36.72792 30.99920 11538 ft 334 kts 94°
2026-05-06 14:23 36.72553 31.02809 12402 ft 336 kts 94°
2026-05-06 14:23 36.72487 31.05735 13148 ft 339 kts 79°
2026-05-06 14:23 36.73192 31.08513 13934 ft 338 kts 58°
2026-05-06 14:23 36.74623 31.10724 14579 ft 336 kts 36°
2026-05-06 14:24 36.76665 31.12157 15268 ft 336 kts 15°
2026-05-06 14:24 36.78964 31.12571 15955 ft 335 kts 354°
2026-05-06 14:24 36.81259 31.12075 16641 ft 337 kts 346°
2026-05-06 14:24 36.83579 31.11509 17338 ft 342 kts 347°
2026-05-06 14:25 36.85928 31.10953 18054 ft 345 kts 347°
2026-05-06 14:25 36.88300 31.10401 18685 ft 349 kts 347°
2026-05-06 14:25 36.90697 31.09847 19292 ft 352 kts 347°
2026-05-06 14:25 36.93111 31.09289 19902 ft 354 kts 347°
2026-05-06 14:26 36.95542 31.08728 20507 ft 357 kts 347°
2026-05-06 14:26 36.97996 31.08159 21105 ft 359 kts 347°
2026-05-06 14:26 37.00467 31.07587 21692 ft 362 kts 347°
2026-05-06 14:26 37.02957 31.07012 22257 ft 365 kts 347°
2026-05-06 14:27 37.05463 31.06430 22830 ft 368 kts 347°
2026-05-06 14:27 37.07990 31.05842 23368 ft 371 kts 347°
2026-05-06 14:27 37.10536 31.05252 23862 ft 374 kts 347°
2026-05-06 14:27 37.13103 31.04657 24307 ft 376 kts 347°
2026-05-06 14:28 37.15674 31.04061 24818 ft 376 kts 347°
2026-05-06 14:28 37.18257 31.03454 25245 ft 379 kts 347°
2026-05-06 14:28 37.20857 31.02849 25670 ft 381 kts 347°
2026-05-06 14:28 37.23472 31.02238 26139 ft 383 kts 347°
2026-05-06 14:29 37.26098 31.01624 26577 ft 385 kts 347°
2026-05-06 14:29 37.28739 31.01006 27033 ft 387 kts 346°
2026-05-06 14:29 37.31388 31.00385 27455 ft 389 kts 347°
2026-05-06 14:29 37.34057 30.99759 27825 ft 391 kts 347°
2026-05-06 14:30 37.36743 30.99132 28261 ft 393 kts 346°
2026-05-06 14:30 37.39428 30.98500 28725 ft 394 kts 346°
2026-05-06 14:30 37.42132 30.97864 29125 ft 396 kts 346°
2026-05-06 14:30 37.44849 30.97225 29533 ft 398 kts 346°
2026-05-06 14:31 37.47541 30.96592 29943 ft 400 kts 346°
2026-05-06 14:31 37.50282 30.95946 30278 ft 402 kts 346°
2026-05-06 14:31 37.53034 30.95296 30569 ft 404 kts 346°
2026-05-06 14:31 37.55808 30.94640 30863 ft 407 kts 346°
2026-05-06 14:32 37.58596 30.93981 31138 ft 409 kts 346°
2026-05-06 14:32 37.61406 30.93316 31417 ft 411 kts 346°
2026-05-06 14:32 37.64225 30.92648 31710 ft 414 kts 346°
2026-05-06 14:32 37.67058 30.91977 31986 ft 416 kts 346°
2026-05-06 14:33 37.69911 30.91300 32277 ft 418 kts 346°
2026-05-06 14:33 37.72781 30.90618 32544 ft 421 kts 346°
2026-05-06 14:33 37.75659 30.89934 32869 ft 422 kts 346°
2026-05-06 14:33 37.78543 30.89245 33263 ft 421 kts 346°
2026-05-06 14:34 37.81421 30.88558 33654 ft 421 kts 346°
2026-05-06 14:34 37.84298 30.87871 34028 ft 420 kts 346°
2026-05-06 14:34 37.87172 30.87184 34353 ft 420 kts 346°
2026-05-06 14:34 37.90047 30.86497 34644 ft 420 kts 346°
2026-05-06 14:35 37.92916 30.85811 34930 ft 420 kts 346°
2026-05-06 14:35 37.95785 30.85125 35210 ft 420 kts 346°
2026-05-06 14:35 37.98657 30.84438 35482 ft 420 kts 346°
2026-05-06 14:35 38.01527 30.83751 35759 ft 420 kts 346°
2026-05-06 14:36 38.04396 30.83064 36039 ft 420 kts 346°
2026-05-06 14:36 38.07264 30.82377 36290 ft 419 kts 346°
2026-05-06 14:36 38.10130 30.81689 36531 ft 419 kts 346°
2026-05-06 14:36 38.13009 30.81052 36768 ft 421 kts 350°
2026-05-06 14:37 38.15917 30.80608 37001 ft 421 kts 349°
2026-05-06 14:37 38.18824 30.80143 37219 ft 421 kts 349°
2026-05-06 14:37 38.21694 30.79672 37442 ft 421 kts 349°
2026-05-06 14:37 38.24636 30.79184 37647 ft 421 kts 349°
2026-05-06 14:38 38.27544 30.78700 37886 ft 421 kts 349°
2026-05-06 14:38 38.30455 30.78215 38073 ft 422 kts 349°
2026-05-06 14:38 38.36284 30.77243 38096 ft 422 kts 349°
2026-05-06 14:39 38.42095 30.76273 38091 ft 421 kts 349°
2026-05-06 14:39 38.47920 30.75298 38094 ft 423 kts 349°
2026-05-06 14:40 38.53749 30.74321 38098 ft 422 kts 349°
2026-05-06 14:40 38.59573 30.73344 38098 ft 422 kts 349°
2026-05-06 14:41 38.65398 30.72364 38090 ft 422 kts 349°
2026-05-06 14:41 38.71224 30.71383 38089 ft 422 kts 349°
2026-05-06 14:42 38.77002 30.70408 38088 ft 422 kts 349°
2026-05-06 14:42 38.82823 30.69424 38081 ft 422 kts 349°
2026-05-06 14:43 38.85634 30.68506 38061 ft 415 kts 334°
2026-05-06 14:43 38.88227 30.66903 38086 ft 415 kts 333°
2026-05-06 14:43 38.93429 30.63646 38079 ft 416 kts 332°
2026-05-06 14:44 38.98616 30.60297 38071 ft 421 kts 332°
2026-05-06 14:45 39.06531 30.55136 38080 ft 427 kts 331°
2026-05-06 14:45 39.11815 30.51681 38069 ft 426 kts 331°
2026-05-06 14:46 39.17108 30.48214 38067 ft 426 kts 331°
2026-05-06 14:46 39.22391 30.44748 38066 ft 426 kts 332°
2026-05-06 14:47 39.27675 30.41275 38064 ft 426 kts 331°
2026-05-06 14:47 39.32104 30.38360 38065 ft 426 kts 331°
2026-05-06 14:48 39.37386 30.34877 38067 ft 427 kts 331°
2026-05-06 14:48 39.42673 30.31387 38060 ft 427 kts 331°
2026-05-06 14:49 39.47962 30.27888 38061 ft 427 kts 331°
2026-05-06 14:49 39.53420 30.24852 38066 ft 428 kts 336°
2026-05-06 14:50 39.58935 30.21933 38067 ft 428 kts 336°
2026-05-06 14:50 39.64443 30.18975 38068 ft 428 kts 336°
2026-05-06 14:51 39.69949 30.16010 38070 ft 428 kts 336°
2026-05-06 14:51 39.75414 30.13061 38069 ft 428 kts 336°
2026-05-06 14:52 39.80924 30.10082 38071 ft 428 kts 336°
2026-05-06 14:52 39.86424 30.07103 38063 ft 428 kts 336°
2026-05-06 14:53 39.91927 30.04118 38060 ft 428 kts 336°
2026-05-06 14:53 39.97433 30.01137 38066 ft 428 kts 336°
2026-05-06 14:54 40.02940 29.98162 38061 ft 428 kts 336°
2026-05-06 14:54 40.08443 29.95184 38049 ft 428 kts 336°
2026-05-06 14:55 40.13955 29.92195 38054 ft 428 kts 336°
2026-05-06 14:55 40.19451 29.89210 38057 ft 428 kts 336°
2026-05-06 14:56 40.24954 29.86216 38050 ft 428 kts 336°
2026-05-06 14:56 40.30453 29.83219 38050 ft 428 kts 336°
2026-05-06 14:57 40.35952 29.80217 38043 ft 428 kts 336°
2026-05-06 14:57 40.41447 29.77211 38054 ft 429 kts 336°
2026-05-06 14:58 40.46955 29.74193 38054 ft 428 kts 336°
2026-05-06 14:58 40.52451 29.71176 38047 ft 428 kts 336°
2026-05-06 14:59 40.57947 29.68154 38054 ft 428 kts 336°
2026-05-06 14:59 40.63438 29.65130 38054 ft 428 kts 336°
2026-05-06 15:00 40.68457 29.61070 38066 ft 425 kts 322°
2026-05-06 15:00 40.73129 29.56263 38070 ft 426 kts 322°
2026-05-06 15:01 40.77767 29.51398 38078 ft 426 kts 321°
2026-05-06 15:01 40.82389 29.46518 38075 ft 426 kts 321°
2026-05-06 15:02 40.86978 29.41664 38075 ft 425 kts 321°
2026-05-06 15:02 40.91594 29.36771 38075 ft 426 kts 321°
2026-05-06 15:03 40.96210 29.31870 38075 ft 426 kts 321°
2026-05-06 15:03 41.00835 29.26950 38075 ft 426 kts 321°
2026-05-06 15:04 41.05452 29.22029 38071 ft 426 kts 321°
2026-05-06 15:04 41.10068 29.17101 38074 ft 426 kts 321°
2026-05-06 15:05 41.14780 29.12321 38081 ft 426 kts 323°
2026-05-06 15:05 41.19543 29.07637 38072 ft 426 kts 323°
2026-05-06 15:06 41.24293 29.02941 38080 ft 426 kts 323°
2026-05-06 15:06 41.29038 28.98238 38077 ft 425 kts 323°
2026-05-06 15:07 41.33784 28.93527 38075 ft 425 kts 323°
2026-05-06 15:07 41.38523 28.88813 38076 ft 425 kts 323°
2026-05-06 15:08 41.43252 28.84100 38076 ft 424 kts 323°
2026-05-06 15:08 41.47975 28.79385 38076 ft 424 kts 323°
2026-05-06 15:09 41.52696 28.74663 38082 ft 424 kts 323°
2026-05-06 15:09 41.57413 28.69936 38082 ft 424 kts 323°
2026-05-06 15:10 41.62125 28.65205 38086 ft 423 kts 323°
2026-05-06 15:10 41.66830 28.60472 38089 ft 423 kts 323°
2026-05-06 15:11 41.71530 28.55736 38089 ft 423 kts 323°
2026-05-06 15:11 41.76229 28.50992 38094 ft 423 kts 323°
2026-05-06 15:12 41.80921 28.46245 38091 ft 423 kts 323°
2026-05-06 15:12 41.85616 28.41487 38092 ft 423 kts 323°
2026-05-06 15:13 41.90303 28.36728 38087 ft 423 kts 323°
2026-05-06 15:13 41.94989 28.31963 38091 ft 422 kts 323°
2026-05-06 15:14 41.99759 28.27368 38094 ft 421 kts 327°
2026-05-06 15:14 42.04616 28.23039 38087 ft 421 kts 326°
2026-05-06 15:15 42.09490 28.18643 38089 ft 422 kts 326°
2026-05-06 15:15 42.14359 28.14236 38086 ft 422 kts 326°
2026-05-06 15:16 42.19227 28.09822 38084 ft 422 kts 326°
2026-05-06 15:16 42.24099 28.05397 38083 ft 422 kts 326°
2026-05-06 15:17 42.28966 28.00967 38080 ft 422 kts 326°
2026-05-06 15:17 42.33828 27.96533 38080 ft 422 kts 326°
2026-05-06 15:18 42.38693 27.92088 38082 ft 422 kts 326°
2026-05-06 15:18 42.43559 27.87634 38079 ft 422 kts 326°
2026-05-06 15:19 42.48421 27.83176 38076 ft 422 kts 326°
2026-05-06 15:19 42.53283 27.78707 38079 ft 422 kts 326°
2026-05-06 15:20 42.58149 27.74228 38076 ft 423 kts 326°
2026-05-06 15:20 42.63018 27.69737 38074 ft 423 kts 326°
2026-05-06 15:21 42.67883 27.65240 38076 ft 423 kts 326°
2026-05-06 15:21 42.72748 27.60736 38076 ft 423 kts 326°
2026-05-06 15:22 42.77604 27.56231 38075 ft 422 kts 326°
2026-05-06 15:22 42.80849 27.53216 38062 ft 422 kts 326°
2026-05-06 15:23 42.84046 27.50241 38070 ft 422 kts 326°
2026-05-06 15:23 42.88854 27.45760 38059 ft 421 kts 326°
2026-05-06 15:24 42.93689 27.41246 38057 ft 421 kts 326°
2026-05-06 15:24 42.98520 27.36726 38059 ft 421 kts 326°
2026-05-06 15:25 43.03343 27.32205 38050 ft 421 kts 326°
2026-05-06 15:25 43.08166 27.27676 38038 ft 420 kts 326°
2026-05-06 15:26 43.12984 27.23142 38030 ft 420 kts 326°
2026-05-06 15:26 43.17800 27.18601 38037 ft 421 kts 326°
2026-05-06 15:27 43.22587 27.14079 38040 ft 421 kts 326°
2026-05-06 15:27 43.27409 27.09515 38034 ft 421 kts 326°
2026-05-06 15:28 43.32231 27.04942 38037 ft 422 kts 325°
2026-05-06 15:28 43.37055 27.00358 38036 ft 422 kts 325°
2026-05-06 15:29 43.41878 26.95767 38034 ft 422 kts 325°
2026-05-06 15:29 43.46699 26.91167 38035 ft 422 kts 325°
2026-05-06 15:30 43.51522 26.86557 38033 ft 422 kts 325°
2026-05-06 15:30 43.56340 26.81942 38022 ft 421 kts 325°
2026-05-06 15:31 43.61150 26.77326 38011 ft 421 kts 325°
2026-05-06 15:31 43.65953 26.72708 38020 ft 420 kts 325°
2026-05-06 15:32 43.73140 26.65779 38003 ft 419 kts 325°
2026-05-06 15:32 43.77114 26.61940 38005 ft 419 kts 325°
2026-05-06 15:33 43.81883 26.57324 37995 ft 418 kts 325°
2026-05-06 15:33 43.86647 26.52703 38008 ft 418 kts 325°
2026-05-06 15:34 43.91413 26.48071 37984 ft 418 kts 325°
2026-05-06 15:34 43.96178 26.43431 37997 ft 418 kts 325°
2026-05-06 15:35 44.00940 26.38785 37998 ft 418 kts 325°
2026-05-06 15:35 44.05697 26.34134 37995 ft 418 kts 325°
2026-05-06 15:36 44.10454 26.29474 37996 ft 418 kts 325°
2026-05-06 15:36 44.15211 26.24804 37989 ft 419 kts 325°
2026-05-06 15:37 44.19970 26.20123 37992 ft 419 kts 325°
2026-05-06 15:37 44.24726 26.15436 37993 ft 419 kts 325°
2026-05-06 15:38 44.29480 26.10741 37994 ft 419 kts 325°
2026-05-06 15:38 44.34234 26.06037 37993 ft 419 kts 325°
2026-05-06 15:39 44.38984 26.01327 37992 ft 419 kts 325°
2026-05-06 15:39 44.43735 25.96606 37995 ft 419 kts 325°
2026-05-06 15:40 44.48489 25.91873 37991 ft 419 kts 325°
2026-05-06 15:40 44.53234 25.87139 37994 ft 419 kts 324°
2026-05-06 15:41 44.57984 25.82391 37995 ft 419 kts 324°
2026-05-06 15:41 44.62732 25.77635 37993 ft 420 kts 324°
2026-05-06 15:42 44.67456 25.72893 37990 ft 420 kts 324°
2026-05-06 15:42 44.72202 25.68119 37992 ft 420 kts 324°
2026-05-06 15:43 44.76982 25.63301 37995 ft 420 kts 324°
2026-05-06 15:43 44.81698 25.58538 37997 ft 420 kts 324°
2026-05-06 15:44 44.86479 25.53699 37995 ft 420 kts 324°
2026-05-06 15:44 44.91225 25.48885 37998 ft 420 kts 324°
2026-05-06 15:45 44.95938 25.44095 38005 ft 420 kts 324°
2026-05-06 15:45 45.00678 25.39268 38007 ft 420 kts 324°
2026-05-06 15:46 45.05420 25.34429 38013 ft 420 kts 324°
2026-05-06 15:46 45.10160 25.29582 38014 ft 420 kts 324°
2026-05-06 15:47 45.14898 25.24726 38017 ft 421 kts 323°
2026-05-06 15:47 45.19635 25.19860 38012 ft 420 kts 323°
2026-05-06 15:48 45.24370 25.14988 38021 ft 421 kts 323°
2026-05-06 15:48 45.29107 25.10102 38017 ft 421 kts 323°
2026-05-06 15:49 45.33838 25.05212 38011 ft 421 kts 323°
2026-05-06 15:49 45.38569 25.00313 38009 ft 421 kts 323°
2026-05-06 15:50 45.43304 24.95399 38011 ft 421 kts 323°
2026-05-06 15:50 45.48036 24.90477 38016 ft 422 kts 323°
2026-05-06 15:51 45.52764 24.85549 38017 ft 421 kts 323°
2026-05-06 15:51 45.57496 24.80606 37992 ft 421 kts 323°
2026-05-06 15:52 45.62229 24.75652 37992 ft 422 kts 323°
2026-05-06 15:52 45.66959 24.70690 37981 ft 422 kts 322°
2026-05-06 15:53 45.71687 24.65719 37973 ft 421 kts 322°
2026-05-06 15:53 45.76378 24.60778 37966 ft 421 kts 322°
2026-05-06 15:54 45.81097 24.55796 37954 ft 422 kts 322°
2026-05-06 15:54 45.85820 24.50798 37950 ft 422 kts 322°
2026-05-06 15:55 45.90539 24.45797 37941 ft 422 kts 322°
2026-05-06 15:55 45.95258 24.40784 37939 ft 422 kts 322°
2026-05-06 15:56 45.99977 24.35763 37934 ft 422 kts 322°
2026-05-06 15:56 46.04695 24.30731 37929 ft 423 kts 322°
2026-05-06 15:57 46.09420 24.25681 37926 ft 423 kts 322°
2026-05-06 15:57 46.14146 24.20617 37923 ft 423 kts 322°
2026-05-06 15:58 46.18868 24.15548 37911 ft 423 kts 322°
2026-05-06 15:58 46.23595 24.10464 37912 ft 424 kts 322°
2026-05-06 15:59 46.28321 24.05371 37917 ft 424 kts 322°
2026-05-06 15:59 46.33120 24.00418 37916 ft 424 kts 323°
2026-05-06 16:00 46.37921 23.95460 37919 ft 424 kts 322°
2026-05-06 16:00 46.42718 23.90495 37912 ft 424 kts 322°
2026-05-06 16:01 46.47514 23.85520 37916 ft 424 kts 322°
2026-05-06 16:01 46.52317 23.80526 37919 ft 425 kts 322°
2026-05-06 16:02 46.57085 23.75558 37917 ft 425 kts 322°
2026-05-06 16:02 46.61886 23.70545 37914 ft 425 kts 322°
2026-05-06 16:03 46.66689 23.65517 37914 ft 425 kts 322°
2026-05-06 16:03 46.71495 23.60477 37912 ft 426 kts 322°
2026-05-06 16:04 46.76298 23.55427 37914 ft 426 kts 322°
2026-05-06 16:04 46.81108 23.50359 37913 ft 427 kts 322°
2026-05-06 16:05 46.85918 23.45279 37917 ft 427 kts 322°
2026-05-06 16:05 46.90732 23.40183 37925 ft 427 kts 322°
2026-05-06 16:06 46.95542 23.35080 37930 ft 428 kts 322°
2026-05-06 16:06 47.00355 23.29963 37929 ft 428 kts 322°
2026-05-06 16:07 47.05173 23.24828 37931 ft 428 kts 322°
2026-05-06 16:07 47.09993 23.19681 37936 ft 429 kts 322°
2026-05-06 16:08 47.14820 23.14513 37932 ft 429 kts 322°
2026-05-06 16:08 47.19650 23.09330 37941 ft 430 kts 322°
2026-05-06 16:09 47.24477 23.04138 37933 ft 430 kts 322°
2026-05-06 16:09 47.29310 22.98929 37930 ft 431 kts 322°
2026-05-06 16:10 47.34112 22.93741 37932 ft 431 kts 322°
2026-05-06 16:10 47.38945 22.88507 37934 ft 431 kts 322°
2026-05-06 16:11 47.43779 22.83259 37923 ft 432 kts 322°
2026-05-06 16:11 47.48652 22.77957 37920 ft 432 kts 322°
2026-05-06 16:12 47.53459 22.72714 37918 ft 432 kts 321°
2026-05-06 16:12 47.58294 22.67428 37920 ft 433 kts 321°
2026-05-06 16:13 47.63136 22.62123 37918 ft 433 kts 321°
2026-05-06 16:13 47.67974 22.56811 37917 ft 433 kts 321°
2026-05-06 16:14 47.72816 22.51484 37921 ft 433 kts 321°
2026-05-06 16:14 47.77657 22.46144 37919 ft 434 kts 321°
2026-05-06 16:15 47.82195 22.40292 37925 ft 432 kts 315°
2026-05-06 16:15 47.86594 22.34188 37918 ft 432 kts 315°
2026-05-06 16:16 47.90979 22.28065 37918 ft 432 kts 315°
2026-05-06 16:16 47.95363 22.21927 37914 ft 432 kts 315°
2026-05-06 16:17 47.99746 22.15775 37915 ft 432 kts 315°
2026-05-06 16:17 48.04120 22.09621 37915 ft 432 kts 315°
2026-05-06 16:18 48.08498 22.03446 37911 ft 432 kts 314°
2026-05-06 16:18 48.12865 21.97270 37913 ft 432 kts 314°
2026-05-06 16:19 48.17232 21.91079 37906 ft 432 kts 314°
2026-05-06 16:19 48.20858 21.85933 37911 ft 432 kts 315°
2026-05-06 16:20 48.23263 21.83233 37892 ft 434 kts 329°
2026-05-06 16:20 48.25919 21.81076 37892 ft 436 kts 328°
2026-05-06 16:20 48.31227 21.76621 37903 ft 437 kts 328°
2026-05-06 16:21 48.36549 21.72220 37905 ft 437 kts 328°
2026-05-06 16:21 48.41887 21.67808 37900 ft 437 kts 328°
2026-05-06 16:22 48.47217 21.63393 37898 ft 438 kts 328°
2026-05-06 16:22 48.52553 21.58962 37892 ft 437 kts 328°
2026-05-06 16:23 48.57882 21.54526 37895 ft 438 kts 328°
2026-05-06 16:23 48.63221 21.50072 37886 ft 438 kts 328°
2026-05-06 16:24 48.68560 21.45606 37894 ft 439 kts 328°
2026-05-06 16:24 48.73901 21.41128 37885 ft 439 kts 328°
2026-05-06 16:25 48.79248 21.36633 37887 ft 440 kts 328°
2026-05-06 16:25 48.84566 21.32153 37885 ft 440 kts 328°
2026-05-06 16:26 48.89921 21.27630 37888 ft 440 kts 328°
2026-05-06 16:26 48.95270 21.23100 37878 ft 440 kts 328°
2026-05-06 16:27 49.00624 21.18556 37892 ft 441 kts 328°
2026-05-06 16:27 49.05986 21.13994 37891 ft 441 kts 327°
2026-05-06 16:28 49.11378 21.09508 37870 ft 444 kts 335°
2026-05-06 16:28 49.17380 21.07059 37864 ft 449 kts 342°
2026-05-06 16:29 49.23448 21.04778 37882 ft 449 kts 343°
2026-05-06 16:29 49.29521 21.02539 37888 ft 449 kts 342°
2026-05-06 16:30 49.32414 21.00869 37868 ft 441 kts 326°
2026-05-06 16:30 49.34074 20.99117 37890 ft 435 kts 315°
2026-05-06 16:30 49.38810 20.91110 37875 ft 434 kts 307°
2026-05-06 16:31 49.42668 20.83981 37886 ft 434 kts 306°
2026-05-06 16:31 49.46482 20.76784 37873 ft 434 kts 306°
2026-05-06 16:32 49.50278 20.69578 37871 ft 434 kts 306°
2026-05-06 16:32 49.54077 20.62343 37864 ft 434 kts 306°
2026-05-06 16:33 49.57872 20.55097 37870 ft 434 kts 306°
2026-05-06 16:34 49.63526 20.44265 37863 ft 435 kts 306°
2026-05-06 16:34 49.67304 20.37001 37863 ft 431 kts 306°
2026-05-06 16:35 49.70880 20.30109 37865 ft 423 kts 306°
2026-05-06 16:35 49.74511 20.23091 37859 ft 423 kts 306°
2026-05-06 16:36 49.78186 20.15968 37850 ft 423 kts 305°
2026-05-06 16:36 49.81857 20.08835 37842 ft 424 kts 305°
2026-05-06 16:37 49.85522 20.01696 37787 ft 419 kts 305°
2026-05-06 16:37 49.87312 19.98202 37409 ft 411 kts 305°
2026-05-06 16:37 49.89086 19.94732 36827 ft 409 kts 305°
2026-05-06 16:37 49.90846 19.91287 36306 ft 406 kts 305°
2026-05-06 16:38 49.92595 19.87858 35828 ft 403 kts 305°
2026-05-06 16:38 49.94327 19.84460 35348 ft 400 kts 305°
2026-05-06 16:38 49.96048 19.81077 34862 ft 398 kts 305°
2026-05-06 16:38 49.97759 19.77711 34379 ft 396 kts 305°
2026-05-06 16:39 49.99462 19.74355 33902 ft 394 kts 305°
2026-05-06 16:39 50.01153 19.71020 33378 ft 392 kts 305°
2026-05-06 16:39 50.02833 19.67701 32875 ft 390 kts 305°
2026-05-06 16:39 50.04505 19.64394 32416 ft 387 kts 305°
2026-05-06 16:40 50.06160 19.61117 31975 ft 384 kts 305°
2026-05-06 16:40 50.07803 19.57861 31530 ft 381 kts 305°
2026-05-06 16:40 50.09434 19.54622 31101 ft 379 kts 304°
2026-05-06 16:40 50.11055 19.51401 30677 ft 376 kts 304°
2026-05-06 16:41 50.12663 19.48199 30260 ft 374 kts 304°
2026-05-06 16:41 50.14264 19.45010 29831 ft 372 kts 304°
2026-05-06 16:41 50.15856 19.41835 29359 ft 370 kts 304°
2026-05-06 16:41 50.17434 19.38683 28934 ft 368 kts 304°
2026-05-06 16:42 50.18868 19.35816 28571 ft 365 kts 304°
2026-05-06 16:42 50.20462 19.32624 28166 ft 361 kts 304°
2026-05-06 16:42 50.21999 19.29545 27775 ft 359 kts 304°
2026-05-06 16:42 50.23507 19.26519 27388 ft 356 kts 304°
2026-05-06 16:43 50.25041 19.23436 27007 ft 353 kts 304°
2026-05-06 16:43 50.26541 19.20421 26627 ft 351 kts 304°
2026-05-06 16:43 50.28013 19.17456 26259 ft 349 kts 304°
2026-05-06 16:43 50.29496 19.14468 25891 ft 347 kts 304°
2026-05-06 16:44 50.30970 19.11493 25521 ft 345 kts 304°
2026-05-06 16:44 50.32452 19.08498 25158 ft 343 kts 304°
2026-05-06 16:44 50.33910 19.05549 24807 ft 341 kts 304°
2026-05-06 16:44 50.35354 19.02624 24453 ft 339 kts 304°
2026-05-06 16:45 50.36777 18.99740 24095 ft 338 kts 305°
2026-05-06 16:45 50.38208 18.96836 23742 ft 336 kts 305°
2026-05-06 16:45 50.39633 18.93940 23395 ft 335 kts 304°
2026-05-06 16:45 50.41050 18.91058 22989 ft 334 kts 304°
2026-05-06 16:46 50.42463 18.88183 22615 ft 332 kts 304°
2026-05-06 16:46 50.43866 18.85320 22263 ft 329 kts 304°
2026-05-06 16:46 50.45253 18.82490 21925 ft 326 kts 304°
2026-05-06 16:46 50.46627 18.79683 21587 ft 323 kts 304°
2026-05-06 16:47 50.47991 18.76894 21261 ft 320 kts 304°
2026-05-06 16:47 50.49340 18.74133 20923 ft 317 kts 304°
2026-05-06 16:47 50.50679 18.71389 20591 ft 315 kts 304°
2026-05-06 16:47 50.52005 18.68668 20271 ft 313 kts 304°
2026-05-06 16:48 50.53317 18.65973 19948 ft 310 kts 304°
2026-05-06 16:48 50.54630 18.63277 19628 ft 310 kts 304°
2026-05-06 16:48 50.55948 18.60566 19289 ft 314 kts 304°
2026-05-06 16:48 50.57286 18.57813 18960 ft 318 kts 304°
2026-05-06 16:49 50.58627 18.55049 18634 ft 318 kts 304°
2026-05-06 16:49 50.59964 18.52292 18307 ft 316 kts 304°
2026-05-06 16:49 50.61294 18.49547 17973 ft 314 kts 304°
2026-05-06 16:49 50.62616 18.46813 17597 ft 312 kts 304°
2026-05-06 16:50 50.63927 18.44100 17267 ft 310 kts 304°
2026-05-06 16:50 50.65221 18.41405 16933 ft 307 kts 303°
2026-05-06 16:50 50.66463 18.38681 16574 ft 306 kts 302°
2026-05-06 16:50 50.67700 18.35971 16269 ft 303 kts 302°
2026-05-06 16:51 50.68928 18.33288 15955 ft 300 kts 302°
2026-05-06 16:51 50.70145 18.30627 15646 ft 298 kts 302°
2026-05-06 16:51 50.71353 18.27987 15332 ft 296 kts 302°
2026-05-06 16:51 50.72556 18.25356 15024 ft 294 kts 302°
2026-05-06 16:52 50.73641 18.22648 14659 ft 290 kts 289°
2026-05-06 16:52 50.74334 18.19674 14356 ft 287 kts 286°
2026-05-06 16:52 50.75008 18.16724 14076 ft 285 kts 285°
2026-05-06 16:52 50.75677 18.13788 13789 ft 283 kts 285°
2026-05-06 16:53 50.76339 18.10874 13488 ft 281 kts 285°
2026-05-06 16:53 50.76998 18.07975 13163 ft 279 kts 285°
2026-05-06 16:53 50.77651 18.05096 12850 ft 277 kts 285°
2026-05-06 16:53 50.78302 18.02216 12552 ft 281 kts 285°
2026-05-06 16:54 50.78967 17.99275 12249 ft 286 kts 285°
2026-05-06 16:54 50.79636 17.96312 11946 ft 287 kts 285°
2026-05-06 16:54 50.80307 17.93340 11650 ft 287 kts 286°
2026-05-06 16:54 50.80977 17.90361 11341 ft 287 kts 286°
2026-05-06 16:55 50.81643 17.87394 11035 ft 286 kts 286°
2026-05-06 16:55 50.82306 17.84442 10731 ft 284 kts 286°
2026-05-06 16:55 50.82953 17.81552 10438 ft 282 kts 286°
2026-05-06 16:55 50.83614 17.78599 10135 ft 280 kts 286°
2026-05-06 16:56 50.84253 17.75743 9852 ft 278 kts 286°
2026-05-06 16:56 50.84986 17.72921 9579 ft 277 kts 291°
2026-05-06 16:56 50.85783 17.70170 9333 ft 274 kts 291°
2026-05-06 16:56 50.86569 17.67415 9111 ft 276 kts 291°
2026-05-06 16:57 50.87355 17.64639 8836 ft 276 kts 291°
2026-05-06 16:57 50.88139 17.61856 8536 ft 277 kts 291°
2026-05-06 16:57 50.88922 17.59067 8229 ft 276 kts 291°
2026-05-06 16:57 50.89700 17.56291 7916 ft 275 kts 291°
2026-05-06 16:58 50.90473 17.53522 7612 ft 274 kts 291°
2026-05-06 16:58 50.91244 17.50762 7293 ft 274 kts 291°
2026-05-06 16:58 50.92014 17.48005 6986 ft 273 kts 291°
2026-05-06 16:58 50.92778 17.45259 6677 ft 272 kts 291°
2026-05-06 16:59 50.93566 17.42525 6363 ft 272 kts 294°
2026-05-06 16:59 50.94411 17.39833 6022 ft 274 kts 294°
2026-05-06 16:59 50.95255 17.37130 5703 ft 273 kts 294°
2026-05-06 16:59 50.96093 17.34434 5392 ft 272 kts 294°
2026-05-06 17:00 50.96924 17.31752 5089 ft 270 kts 294°
2026-05-06 17:00 50.97754 17.29089 4832 ft 268 kts 294°
2026-05-06 17:00 50.98580 17.26464 4610 ft 263 kts 295°
2026-05-06 17:00 50.99400 17.23899 4396 ft 259 kts 295°
2026-05-06 17:01 51.00196 17.21358 4178 ft 255 kts 295°
2026-05-06 17:01 51.00968 17.18867 4011 ft 248 kts 295°
2026-05-06 17:01 51.01721 17.16425 3780 ft 245 kts 296°
2026-05-06 17:01 51.02464 17.14012 3548 ft 243 kts 296°
2026-05-06 17:02 51.03200 17.11617 3329 ft 240 kts 296°
2026-05-06 17:02 51.03934 17.09230 3027 ft 241 kts 297°
2026-05-06 17:02 51.04667 17.06834 2730 ft 240 kts 298°
2026-05-06 17:02 51.05388 17.04477 2380 ft 234 kts 300°
2026-05-06 17:03 51.06091 17.02193 2097 ft 226 kts 298°
2026-05-06 17:03 51.06772 16.99969 1783 ft 220 kts 299°
2026-05-06 17:03 51.07416 16.97876 1496 ft 202 kts 299°
2026-05-06 17:03 51.08007 16.95950 1270 ft 184 kts 300°
2026-05-06 17:04 51.08539 16.94222 1056 ft 162 kts 297°
2026-05-06 17:04 51.09002 16.92706 858 ft 146 kts 294°
2026-05-06 17:04 51.09451 16.91254 627 ft 152 kts 292°
2026-05-06 17:04 51.09925 16.89700 433 ft 158 kts 292°
2026-05-06 17:05 51.10372 16.88237 407 ft 122 kts 296°
2026-05-06 17:05 51.10631 16.87396 403 ft 43 kts 296°
2026-05-06 17:05 51.10699 16.87242 406 ft 11 kts 354°
2026-05-06 17:05 51.10779 16.87291 406 ft 14 kts 26°
2026-05-06 17:06 51.10874 16.87367 405 ft 17 kts 26°
2026-05-06 17:06 51.10945 16.87445 405 ft 11 kts 76°
2026-05-06 17:06 51.10920 16.87566 406 ft 13 kts 116°
2026-05-06 17:06 51.10890 16.87662 404 ft 15 kts 116°
2026-05-06 17:07 51.10841 16.87821 406 ft 16 kts 116°
2026-05-06 17:07 51.10800 16.87953 405 ft 11 kts 116°
2026-05-06 17:07 51.10784 16.88054 403 ft 5 kts 45°
2026-05-06 17:07 51.10802 16.88069 406 ft 4 kts 27°
2026-05-06 17:08 51.10832 16.88093 406 ft 2 kts 25°
2026-05-06 17:08 51.10835 16.88095 406 ft 0 kts 25°